(27) Euterpe
(27) Euterpe
Epoch 2008 Nov. 30.0 TT = JDT 2454800.5 Goffin
M 13.12103 (2000.0) P Q
n 0.27416348 Peri. 356.80660 -0.02815780 -0.99922402
a 2.3467292 Node 94.80572 +0.91772961 -0.03676225
e 0.1728639 Incl. 1.58375 +0.39620639 +0.01413872
P 3.59 H 7.0 G 0.15 U 0
From 1618 observations at 79 oppositions, 1853-2000, mean residual 0".53.
An explanation of the orbital
elements is available.These orbital elements are also available in forms suitable for loading into a number of popular planetarium-type software programs.
Personalized ephemerides for this object (and others) can be generated using the MPES.
Date TT R. A. (2000) Decl. Delta r Elong. Phase V 2009 01 01 09 38.06 +15 29.7 1.134 1.983 138.8 19.0 9.7 2009 01 06 09 36.62 +15 44.5 1.105 1.988 144.3 16.8 9.6 2009 01 11 09 34.28 +16 03.4 1.080 1.994 150.1 14.2 9.5 2009 01 16 09 31.11 +16 26.0 1.060 1.999 156.0 11.6 9.3 2009 01 21 09 27.22 +16 51.5 1.046 2.005 162.1 8.7 9.2 2009 01 26 09 22.74 +17 18.7 1.038 2.012 168.2 5.7 9.1 2009 01 31 09 17.88 +17 46.5 1.035 2.018 174.4 2.7 8.9 2009 02 05 09 12.85 +18 13.7 1.039 2.025 177.7 1.1 8.8 2009 02 10 09 07.89 +18 39.1 1.050 2.032 172.3 3.7 9.0 2009 02 15 09 03.19 +19 01.9 1.066 2.039 166.2 6.6 9.2 2009 02 20 08 58.97 +19 21.4 1.089 2.047 160.2 9.4 9.4 2009 02 25 08 55.37 +19 37.0 1.117 2.054 154.3 12.1 9.5 2009 03 02 08 52.53 +19 48.6 1.150 2.062 148.6 14.5 9.7 2009 03 07 08 50.55 +19 55.9 1.189 2.070 143.1 16.7 9.8 2009 03 12 08 49.45 +19 59.1 1.231 2.078 137.9 18.7 10.0 2009 03 17 08 49.23 +19 58.5 1.278 2.086 132.8 20.5 10.1 2009 03 22 08 49.87 +19 54.0 1.328 2.095 128.0 22.0 10.3 2009 03 27 08 51.35 +19 46.1 1.381 2.103 123.5 23.3 10.4 2009 04 01 08 53.62 +19 34.7 1.437 2.112 119.1 24.4 10.5 2009 04 06 08 56.60 +19 20.2 1.496 2.121 114.9 25.3 10.7 2009 04 11 09 00.25 +19 02.7 1.556 2.130 110.9 26.1 10.8 2009 04 16 09 04.48 +18 42.4 1.617 2.139 107.1 26.6 10.9 2009 04 21 09 09.24 +18 19.4 1.680 2.148 103.4 27.1 11.0 2009 04 26 09 14.48 +17 53.8 1.745 2.157 99.8 27.4 11.1 2009 05 01 09 20.15 +17 25.7 1.810 2.167 96.4 27.5 11.2